KF0EZB Weather Reports


time (UTC)temp
C
wind
direction
speed
KPH
gust
KPH
rain 1hr
cm
rain 24hr
cm
rain mn
cm
humidity
%
barometer
mb
20260507172159 20 312 8.0 14.5 0.00 0.00 0.00 37 1013.9
20260507171658 20 298 4.8 9.7 0.00 0.00 0.00 38 1014.1
20260507171156 20 260 4.8 9.7 0.00 0.00 0.00 38 1014.1
20260507170653 20 282 6.4 12.9 0.00 0.00 0.00 38 1014.2
20260507170150 20 213 9.7 22.5 0.00 0.00 0.00 38 1014.4
20260507165646 19 302 6.4 12.9 0.00 0.00 0.00 39 1014.4
20260507165142 19 280 6.4 14.5 0.00 0.00 0.00 39 1014.4
20260507164638 19 276 6.4 16.1 0.00 0.00 0.00 40 1014.7
20260507164136 19 291 6.4 14.5 0.00 0.00 0.00 39 1014.4
20260507163633 18 306 9.7 12.9 0.00 0.00 0.00 40 1014.6
20260507163131 18 273 4.8 16.1 0.00 0.00 0.00 40 1014.6
20260507162626 18 208 4.8 11.3 0.00 0.00 0.00 41 1014.6
20260507162123 18 217 4.8 16.1 0.00 0.00 0.00 42 1014.6
20260507161619 18 258 8.0 20.9 0.00 0.00 0.00 42 1014.7
20260507161116 17 223 11.3 29.0 0.00 0.00 0.00 43 1014.8
20260507160612 18 216 3.2 4.8 0.00 0.00 0.00 45 1014.8
20260507160109 17 301 8.0 11.3 0.00 0.00 0.00 45 1014.8
20260507155604 17 204 4.8 16.1 0.00 0.00 0.00 47 1014.7
20260507155101 16 295 11.3 16.1 0.00 0.00 0.00 48 1015.1
20260507154558 16 228 6.4 11.3 0.00 0.00 0.00 50 1015.0
20260507154055 16 248 9.7 14.5 0.00 0.00 0.00 50 1015.2
20260507153552 15 214 4.8 9.7 0.00 0.00 0.00 52 1015.5
20260507153048 15 249 9.7 16.1 0.00 0.00 0.00 52 1015.4
20260507152544 15 250 8.0 12.9 0.00 0.00 0.00 54 1015.5
20260507152040 14 309 8.0 12.9 0.00 0.00 0.00 55 1015.4
20260507151536 14 265 9.7 12.9 0.00 0.00 0.00 57 1015.6
20260507151034 13 240 6.4 11.3 0.00 0.00 0.00 57 1015.6
20260507150530 13 228 4.8 14.5 0.00 0.00 0.00 59 1015.8
20260507150022 13 224 4.8 8.0 0.00 0.00 0.00 61 1015.6
20260507145516 13 279 3.2 14.5 0.00 0.00 0.00 62 1015.9
20260507145015 13 251 4.8 8.0 0.00 0.00 0.00 62 1015.7
20260507144511 12 184 1.6 14.5 0.00 0.00 0.00 65 1015.9
20260507144008 12 277 1.6 8.0 0.00 0.00 0.00 66 1015.9
20260507143505 12 205 4.8 12.9 0.00 0.00 0.00 67 1016.1
20260507143003 12 242 4.8 12.9 0.00 0.00 0.00 68 1016.0
20260507142458 11 252 3.2 8.0 0.00 0.00 0.00 70 1016.1
20260507141955 11 211 3.2 16.1 0.00 0.00 0.00 72 1016.0
20260507141451 10 311 3.2 8.0 0.00 0.00 0.00 73 1016.1
20260507140948 10 278 8.0 12.9 0.00 0.00 0.00 75 1016.2
20260507140444 10 255 3.2 9.7 0.00 0.00 0.00 76 1016.2
20260507135942 10 276 8.0 12.9 0.00 0.00 0.00 77 1016.1
20260507135439 9 230 4.8 14.5 0.00 0.00 0.00 79 1016.5
20260507134936 8 267 8.0 16.1 0.00 0.00 0.00 80 1016.3
20260507134432 8 301 4.8 16.1 0.00 0.00 0.00 81 1016.7
20260507133928 8 272 6.4 9.7 0.00 0.00 0.00 81 1016.6
20260507133424 8 211 3.2 9.7 0.00 0.00 0.00 82 1016.7
20260507132918 7 229 1.6 14.5 0.00 0.00 0.00 84 1016.9
20260507132413 7 225 4.8 11.3 0.00 0.00 0.00 84 1016.8
20260507131910 7 264 8.0 17.7 0.00 0.00 0.00 85 1016.8
20260507131407 7 239 4.8 8.0 0.00 0.00 0.00 86 1016.9
20260507130904 6 259 4.8 12.9 0.00 0.00 0.00 88 1016.9
20260507130401 6 265 6.4 9.7 0.00 0.00 0.00 89 1017.1
20260507125900 6 268 3.2 8.0 0.00 0.00 0.00 90 1017.1
20260507125357 5 235 3.2 9.7 0.00 0.00 0.00 91 1016.9
20260507124855 5 205 3.2 3.2 0.00 0.00 0.00 91 1017.1
20260507124350 5 195 0.0 8.0 0.00 0.00 0.00 92 1017.1
20260507123849 5 216 1.6 4.8 0.00 0.00 0.00 92 1017.1
20260507123346 5 206 3.2 4.8 0.00 0.00 0.00 93 1017.3
20260507122842 4 270 3.2 4.8 0.00 0.00 0.00 93 1017.2
20260507122337 4 253 4.8 8.0 0.00 0.00 0.00 94 1016.9
20260507121834 4 230 3.2 11.3 0.00 0.00 0.00 95 1016.8
20260507121330 4 256 4.8 8.0 0.00 0.00 0.00 95 1017.1
20260507120826 3 266 1.6 8.0 0.00 0.00 0.00 95 1016.8
20260507120323 3 256 1.6 8.0 0.00 0.00 0.00 96 1017.1
20260507115819 3 209 1.6 3.2 0.00 0.00 0.00 96 1017.1
20260507115315 3 212 1.6 3.2 0.00 0.00 0.00 96 1016.9
20260507114811 3 226 1.6 4.8 0.00 0.00 0.00 96 1016.9
20260507114308 3 256 4.8 8.0 0.00 0.00 0.00 96 1016.9
20260507113806 3 246 3.2 4.8 0.00 0.00 0.00 96 1016.9
20260507113302 3 267 1.6 3.2 0.00 0.00 0.00 96 1016.9
20260507112800 2 271 3.2 4.8 0.00 0.00 0.00 96 1016.8
20260507112257 2 195 1.6 3.2 0.00 0.00 0.00 96 1016.8
20260507111755 2 187 1.6 3.2 0.00 0.00 0.00 96 1016.7
20260507111251 2 189 3.2 4.8 0.00 0.00 0.00 96 1016.8
20260507110747 2 187 1.6 3.2 0.00 0.00 0.00 96 1017.1
20260507110244 2 189 1.6 1.6 0.00 0.00 0.00 96 1017.1
20260507105741 3 208 1.6 3.2 0.00 0.00 0.00 96 1017.3
20260507105236 3 208 1.6 3.2 0.00 0.00 0.00 96 1017.3
20260507104734 3 211 3.2 3.2 0.00 0.00 0.00 96 1017.3
20260507104231 3 239 3.2 4.8 0.00 0.00 0.00 96 1017.4
20260507103727 3 180 1.6 1.6 0.00 0.00 0.00 96 1017.3
20260507103223 3 183 1.6 3.2 0.00 0.00 0.00 96 1017.5
20260507102719 3 187 1.6 4.8 0.00 0.00 0.00 96 1017.4
20260507102216 3 181 1.6 1.6 0.00 0.00 0.00 96 1017.5
20260507101712 3 184 3.2 3.2 0.00 0.00 0.00 96 1017.5
20260507101207 3 179 1.6 3.2 0.00 0.00 0.00 96 1017.8
20260507100705 3 179 1.6 1.6 0.00 0.00 0.00 95 1017.5
20260507100203 3 180 1.6 3.2 0.00 0.00 0.00 95 1017.7
20260507095701 3 181 1.6 1.6 0.00 0.00 0.00 95 1017.6
20260507095157 3 181 1.6 1.6 0.00 0.00 0.00 95 1017.6
20260507094654 3 183 1.6 1.6 0.00 0.00 0.00 95 1017.7
20260507094150 3 185 0.0 1.6 0.00 0.00 0.00 95 1017.8
20260507093648 3 188 1.6 1.6 0.00 0.00 0.00 95 1017.6
20260507093147 3 196 1.6 3.2 0.00 0.00 0.00 95 1017.7
20260507092643 3 205 1.6 3.2 0.00 0.00 0.00 95 1017.9
20260507092139 3 239 3.2 4.8 0.00 0.00 0.00 95 1017.8
20260507091636 3 217 3.2 4.8 0.00 0.00 0.00 95 1017.6
20260507091132 3 225 3.2 3.2 0.00 0.00 0.00 95 1017.8
20260507090628 3 180 1.6 3.2 0.00 0.00 0.00 95 1017.8
20260507090126 3 179 1.6 3.2 0.00 0.00 0.00 95 1017.8
20260507085622 3 180 0.0 1.6 0.00 0.00 0.00 95 1017.9
20260507085119 3 181 1.6 1.6 0.00 0.00 0.00 95 1018.0
20260507084616 3 182 1.6 3.2 0.00 0.00 0.00 94 1018.2
20260507084113 3 182 0.0 1.6 0.00 0.00 0.00 94 1018.0
20260507083609 3 183 0.0 3.2 0.00 0.00 0.00 94 1018.2
20260507083107 4 184 1.6 3.2 0.00 0.00 0.00 94 1018.1
20260507082602 4 185 3.2 3.2 0.00 0.00 0.00 94 1018.3
20260507082059 4 186 1.6 3.2 0.00 0.00 0.00 94 1018.1
20260507081555 4 186 1.6 1.6 0.00 0.00 0.00 93 1018.6
20260507081052 4 189 1.6 3.2 0.00 0.00 0.00 93 1018.5
20260507080548 5 195 1.6 1.6 0.00 0.00 0.00 93 1018.5
20260507080045 5 200 3.2 4.8 0.00 0.00 0.00 93 1018.9
20260507075540 5 209 0.0 4.8 0.00 0.00 0.00 93 1018.9
20260507075036 5 220 3.2 4.8 0.00 0.00 0.00 93 1018.6
20260507074533 5 212 4.8 4.8 0.00 0.00 0.00 92 1018.7
20260507074032 5 231 3.2 4.8 0.00 0.00 0.00 92 1019.1
20260507073527 5 220 3.2 3.2 0.00 0.00 0.00 92 1019.1
20260507073024 5 205 1.6 4.8 0.00 0.00 0.00 91 1018.9
20260507072522 5 211 0.0 4.8 0.00 0.00 0.00 91 1019.0
20260507072019 5 239 4.8 8.0 0.00 0.00 0.00 91 1019.1
20260507071516 5 217 4.8 4.8 0.00 0.00 0.00 90 1019.1
20260507071012 5 239 6.4 9.7 0.00 0.00 0.00 90 1019.1
20260507070510 6 237 4.8 8.0 0.00 0.00 0.00 90 1019.2
20260507070010 6 253 3.2 4.8 0.00 0.00 0.00 90 1019.1
20260507065503 6 283 6.4 9.7 0.00 0.00 0.00 89 1019.3
20260507065000 6 253 3.2 11.3 0.00 0.00 0.00 89 1019.3
20260507064458 6 273 8.0 11.3 0.00 0.00 0.00 89 1019.1
20260507063956 6 252 4.8 12.9 0.00 0.00 0.00 89 1019.2
20260507063453 6 270 4.8 11.3 0.00 0.00 0.00 88 1019.2
20260507062950 6 258 4.8 9.7 0.00 0.00 0.00 88 1019.4
20260507062447 6 270 3.2 11.3 0.00 0.00 0.00 88 1019.4
20260507061944 6 277 4.8 9.7 0.00 0.00 0.00 89 1019.5
20260507061442 6 284 6.4 8.0 0.00 0.00 0.00 89 1019.5
20260507060940 6 252 4.8 9.7 0.00 0.00 0.00 89 1019.4
20260507060437 6 272 4.8 9.7 0.00 0.00 0.00 89 1019.4
20260507055933 6 278 3.2 4.8 0.00 0.00 0.00 89 1019.6
20260507055429 6 271 3.2 9.7 0.00 0.00 0.00 89 1019.7
20260507054926 6 241 4.8 11.3 0.00 0.00 0.00 89 1019.8
20260507054422 7 241 8.0 11.3 0.00 0.00 0.00 89 1019.8
20260507053919 7 261 6.4 9.7 0.00 0.00 0.00 88 1019.9
20260507053417 7 265 11.3 12.9 0.00 0.00 0.00 88 1020.1
20260507052915 7 263 6.4 9.7 0.00 0.00 0.00 88 1019.9
20260507052412 7 286 6.4 12.9 0.00 0.00 0.00 88 1020.0
20260507051909 7 278 8.0 11.3 0.00 0.00 0.00 88 1020.1
20260507051407 7 258 8.0 12.9 0.00 0.00 0.00 87 1019.9
20260507050904 7 280 6.4 11.3 0.00 0.00 0.00 87 1019.8
20260507050400 7 279 8.0 12.9 0.00 0.00 0.00 86 1019.9
20260507045857 7 275 6.4 9.7 0.00 0.56 0.56 86 1019.8
20260507045353 7 279 4.8 11.3 0.00 0.56 0.56 86 1019.6
20260507044851 7 243 4.8 9.7 0.00 0.56 0.56 85 1019.6
20260507044347 7 260 6.4 11.3 0.00 0.56 0.56 85 1019.7
20260507043843 8 287 6.4 9.7 0.00 0.56 0.56 84 1019.5
20260507043340 8 287 4.8 12.9 0.00 0.56 0.56 84 1019.6
20260507042836 8 244 4.8 11.3 0.00 0.56 0.56 83 1019.7
20260507042332 8 277 4.8 9.7 0.00 0.56 0.56 82 1019.5
20260507041829 8 265 6.4 9.7 0.00 0.56 0.56 81 1019.8
20260507041325 8 299 4.8 9.7 0.00 0.56 0.56 80 1019.8
20260507040823 8 275 8.0 11.3 0.00 0.56 0.56 79 1020.0
20260507040319 9 265 4.8 8.0 0.00 0.56 0.56 78 1019.7
20260507035815 9 285 6.4 9.7 0.00 0.56 0.56 78 1019.7
20260507035310 9 285 4.8 4.8 0.00 0.56 0.56 77 1019.6
20260507034809 9 299 4.8 8.0 0.00 0.56 0.56 77 1019.5
20260507034305 9 299 3.2 9.7 0.00 0.56 0.56 76 1019.5
20260507033803 9 295 3.2 3.2 0.00 0.56 0.56 76 1019.6
20260507033301 10 269 3.2 3.2 0.00 0.56 0.56 75 1019.2
20260507032757 10 278 3.2 4.8 0.00 0.56 0.56 75 1019.3
20260507032253 10 252 1.6 4.8 0.00 0.56 0.56 74 1019.3
20260507031750 10 257 3.2 4.8 0.00 0.56 0.56 74 1019.3
20260507031247 10 217 1.6 4.8 0.00 0.56 0.56 74 1019.4
20260507030744 10 214 3.2 3.2 0.00 0.56 0.56 74 1019.3
20260507030241 10 216 1.6 3.2 0.00 0.56 0.56 74 1019.1
20260507025738 10 222 1.6 3.2 0.00 0.56 0.56 73 1019.2
20260507025235 10 226 1.6 3.2 0.00 0.56 0.56 73 1019.4
20260507024734 10 230 3.2 4.8 0.00 0.56 0.56 73 1019.3
20260507024231 10 230 1.6 3.2 0.00 0.56 0.56 73 1019.3
20260507023726 10 257 3.2 3.2 0.00 0.56 0.56 72 1019.1
20260507023223 10 258 3.2 3.2 0.00 0.56 0.56 72 1019.2
20260507022720 10 252 3.2 4.8 0.00 0.56 0.56 72 1019.4
20260507022216 10 239 3.2 3.2 0.00 0.56 0.56 72 1019.0
20260507021712 10 299 1.6 4.8 0.00 0.56 0.56 71 1019.1
20260507021208 10 308 3.2 4.8 0.00 0.56 0.56 71 1019.1
20260507020707 10 288 3.2 4.8 0.00 0.56 0.56 71 1019.0
20260507020202 10 243 1.6 3.2 0.00 0.56 0.56 71 1018.9
20260507015700 10 277 1.6 3.2 0.00 0.56 0.56 70 1018.9
20260507015158 10 297 3.2 3.2 0.00 0.56 0.56 70 1018.7
20260507014654 11 267 1.6 3.2 0.00 0.56 0.56 69 1018.6
20260507014150 11 305 4.8 4.8 0.00 0.56 0.56 68 1018.6
20260507013647 11 305 4.8 4.8 0.00 0.56 0.56 68 1018.3
20260507013144 11 287 3.2 3.2 0.00 0.56 0.56 68 1018.7
20260507012642 11 308 4.8 4.8 0.00 0.56 0.56 68 1018.4
20260507012137 11 223 0.0 3.2 0.00 0.56 0.56 67 1018.6
20260507011636 11 232 1.6 1.6 0.00 0.56 0.56 66 1018.4
20260507011131 11 288 0.0 1.6 0.00 0.56 0.56 66 1018.5
20260507010626 11 301 3.2 4.8 0.00 0.56 0.56 65 1018.6
20260507010123 11 300 4.8 9.7 0.00 0.56 0.56 65 1018.4
20260507005620 11 240 1.6 3.2 0.00 0.56 0.56 65 1018.7
20260507005116 11 300 1.6 4.8 0.00 0.56 0.56 64 1018.7
20260507004613 11 247 1.6 3.2 0.00 0.56 0.56 64 1018.4
20260507004110 11 295 3.2 4.8 0.00 0.56 0.56 63 1018.6
20260507003606 11 145 0.0 0.0 0.00 0.56 0.56 62 1018.4
20260507003101 11 171 0.0 1.6 0.00 0.56 0.56 63 1018.4
20260507002558 11 205 0.0 1.6 0.00 0.56 0.56 62 1018.3
20260507002054 11 298 0.0 3.2 0.00 0.56 0.56 61 1018.4
20260507001551 11 301 4.8 8.0 0.00 0.56 0.56 60 1018.2
20260507001048 12 195 0.0 1.6 0.00 0.56 0.56 61 1018.3
20260507000544 12 253 3.2 4.8 0.00 0.56 0.56 61 1018.2
20260507000040 12 294 1.6 1.6 0.00 0.56 0.56 60 1018.3
20260506235538 12 306 8.0 11.3 0.00 0.56 0.56 59 1018.1
20260506235033 12 316 3.2 3.2 0.00 0.56 0.56 60 1018.1
20260506234531 12 322 0.0 4.8 0.00 0.56 0.56 60 1018.4
20260506234028 12 298 4.8 8.0 0.00 0.56 0.56 59 1018.5
20260506233525 12 298 6.4 8.0 0.00 0.56 0.56 58 1018.4
20260506233022 12 306 4.8 8.0 0.00 0.56 0.56 56 1018.2
20260506232518 13 108 1.6 4.8 0.00 0.56 0.56 56 1018.3
20260506232013 13 81 3.2 4.8 0.00 0.56 0.56 57 1018.4
20260506231511 12 159 0.0 1.6 0.00 0.56 0.56 60 1018.4
20260506231009 12 258 3.2 4.8 0.00 0.56 0.56 59 1018.2
20260506230504 12 211 4.8 4.8 0.00 0.56 0.56 58 1018.3
20260506230003 12 155 0.0 1.6 0.00 0.56 0.56 58 1018.4
20260506225459 12 124 1.6 3.2 0.00 0.56 0.56 58 1018.3
20260506224955 12 305 3.2 8.0 0.00 0.56 0.56 58 1018.4
20260506224452 12 241 0.0 3.2 0.00 0.56 0.56 59 1018.3
20260506223949 12 188 1.6 3.2 0.00 0.56 0.56 58 1018.2
20260506223445 12 191 1.6 1.6 0.00 0.56 0.56 59 1018.3
20260506222942 12 293 3.2 4.8 0.00 0.56 0.56 57 1018.4
20260506222439 12 288 4.8 8.0 0.00 0.56 0.56 56 1018.3
20260506221935 12 306 4.8 9.7 0.00 0.56 0.56 56 1018.2
20260506221432 13 292 3.2 4.8 0.00 0.56 0.56 55 1018.2
20260506220930 13 270 4.8 4.8 0.00 0.56 0.56 55 1018.4
20260506220425 13 287 6.4 8.0 0.00 0.56 0.56 56 1018.3
20260506215922 13 128 1.6 14.5 0.00 0.56 0.56 55 1018.2
20260506215418 13 217 3.2 8.0 0.00 0.56 0.56 54 1018.3
20260506214914 13 211 3.2 4.8 0.00 0.56 0.56 54 1018.5
20260506214411 12 227 3.2 8.0 0.00 0.56 0.56 57 1018.5
20260506213909 12 291 4.8 9.7 0.00 0.56 0.56 56 1018.7
20260506213406 13 256 6.4 9.7 0.00 0.56 0.56 54 1018.5
20260506212904 13 176 1.6 4.8 0.00 0.56 0.56 55 1018.7
20260506212359 13 310 4.8 8.0 0.00 0.56 0.56 53 1018.6
20260506211854 13 142 3.2 4.8 0.00 0.56 0.56 57 1018.9
20260506211350 13 271 6.4 9.7 0.00 0.56 0.56 57 1018.9
20260506210848 13 94 1.6 4.8 0.00 0.56 0.56 58 1018.9
20260506210344 13 208 3.2 4.8 0.00 0.56 0.56 57 1018.9
20260506205842 13 214 1.6 4.8 0.00 0.56 0.56 62 1018.9
20260506205338 14 307 4.8 11.3 0.00 0.56 0.56 58 1019.2
20260506204834 12 143 1.6 3.2 0.00 0.56 0.56 60 1019.0
20260506204332 12 79 1.6 4.8 0.00 0.56 0.56 62 1019.2
20260506203829 12 120 1.6 3.2 0.00 0.56 0.56 62 1019.1
20260506203326 13 153 4.8 4.8 0.00 0.56 0.56 60 1019.3
20260506202823 13 94 4.8 4.8 0.00 0.56 0.56 64 1019.4
20260506202320 12 261 1.6 8.0 0.00 0.56 0.56 61 1019.4
20260506201816 12 185 3.2 4.8 0.00 0.56 0.56 64 1019.4
20260506201315 12 270 4.8 8.0 0.00 0.56 0.56 67 1019.5
20260506200811 12 306 8.0 9.7 0.00 0.56 0.56 65 1019.6
20260506200307 12 145 0.0 4.8 0.00 0.56 0.56 64 1019.7
20260506195803 11 255 3.2 4.8 0.00 0.56 0.56 68 1019.7
20260506195300 11 47 4.8 9.7 0.00 0.56 0.56 66 1019.7
20260506194758 11 307 3.2 9.7 0.00 0.56 0.56 69 1019.5
20260506194254 11 163 3.2 4.8 0.00 0.56 0.56 70 1019.7
20260506193752 10 68 3.2 8.0 0.00 0.56 0.56 71 1019.6
20260506193248 11 250 1.6 9.7 0.00 0.56 0.56 70 1019.9
20260506192744 11 170 0.0 4.8 0.00 0.56 0.56 69 1019.7
20260506192241 11 144 0.0 1.6 0.00 0.56 0.56 67 1019.8
20260506191738 11 135 0.0 1.6 0.00 0.56 0.56 68 1019.8
20260506191235 11 160 1.6 4.8 0.00 0.56 0.56 66 1019.8
20260506190732 11 352 0.0 8.0 0.00 0.56 0.56 68 1019.8
20260506190228 11 350 1.6 1.6 0.00 0.56 0.56 70 1019.9
20260506185725 10 271 0.0 3.2 0.00 0.56 0.56 69 1019.8
20260506185221 11 274 3.2 3.2 0.00 0.56 0.56 70 1020.1
20260506184719 11 277 4.8 4.8 0.00 0.56 0.56 73 1020.2
20260506184216 10 293 3.2 4.8 0.00 0.56 0.56 73 1019.9
20260506183713 11 110 3.2 4.8 0.00 0.56 0.56 70 1020.2
20260506183209 10 134 1.6 1.6 0.00 0.56 0.56 72 1019.9
20260506182706 11 58 3.2 8.0 0.00 0.56 0.56 71 1020.2
20260506182203 10 120 1.6 3.2 0.00 0.56 0.56 74 1020.0
20260506181701 10 70 3.2 4.8 0.00 0.56 0.56 75 1020.1
20260506181158 10 42 8.0 11.3 0.00 0.56 0.56 76 1019.9
20260506180655 10 104 0.0 3.2 0.00 0.56 0.56 78 1020.3
20260506180151 10 94 4.8 4.8 0.00 0.56 0.56 78 1020.1
20260506175648 10 131 0.0 4.8 0.00 0.56 0.56 80 1020.1
20260506175145 10 89 3.2 8.0 0.00 0.56 0.56 78 1020.2
20260506174638 10 72 3.2 4.8 0.00 0.56 0.56 78 1020.1
20260506174134 10 98 4.8 4.8 0.00 0.56 0.56 79 1020.2
20260506173631 10 64 4.8 8.0 0.00 0.56 0.56 80 1020.1
20260506173129 10 67 1.6 4.8 0.00 0.56 0.56 81 1020.1
20260506172626 10 73 4.8 9.7 0.00 0.56 0.56 83 1020.3